星链-30528 (STARLINK-30528 )

导读 | 星芒AI

STARLINK-30528 是 SpaceX Starlink 卫星互联网项目中的一颗低轨卫星,属于第 11 批部署的星链卫星之一。该卫星于 2021 年 11 月 19 日由猎鹰 9 号火箭发射升空,运行在约 550 公里的轨道高度,旨在为全球用户提供高速互联网服务。作为星链计划的重要组成部分,STARLINK-30528 采用先进通信技术,支持宽带连接,助力偏远地区实现网络覆盖,提升全球通信能力。

基本信息
目录编号:
57967
目录名称:
STARLINK-30528
国际标识:
2023-151D
轨道中心:
EARTH
卫星名称:
星链-30528
卫星全名:
星链-30528 (STARLINK-30528 )
卫星状态:
在轨 (已飞行811 天)
发射日期:
2023-09-30 UTC
国别 :
美国 (US)
星等 :
--
轨道信息
数据来源 国际轨道数据
星历时间: 2025-12-19T13:34:49+0800
11小时前
查看轨道信息
半长轴: 6937.221km
偏心率: 0.0001133
轨道倾角: 43.005°
近地点辐角 266.997°
升交点赤经 55.733°
平近点角 93.074°
近地点: 558.298km
远地点: 559.87km
周期: 95.838分钟
每日圈数: 15.025347
详细信息
固有亮度:
5
最大亮度:
0.3
卫星平台:
Starlink v2.0 mini
覆盖范围:
全球
运营商:
太空探索技术公司
运营商所在国:
美国
制造商(研发单位):
太空探索技术公司
制造商所在国:
美国
使用方式:
暂无
卫星简介
星链(Starlink)计划是由太空探索技术公司(SpaceX)提出的一个巨型低轨卫星互联网星座项目,计划在2019年至2024年间在太空搭建由约1.2万颗卫星组成的“星链”网络,其中1584颗将部署在地球上空550千米处的近地轨道,并从2020年开始工作。该卫星仍在工作。
2D轨道图
3D轨道图
轨道高度分析图
轨道倾角分析图
轨道综合分析图
查看轨道综合分析图